| time (UTC) | temp C | wind direction | speed KPH | gust KPH | rain 1hr cm | rain 24hr cm | rain mn cm | humidity % | barometer mb |
| 20260504231646 | 15 | 190 | 0.0 | 0.0 | 0.00 | 0.00 | 0.00 | 58 | 1011.4 |
| 20260504225156 | 18 | 270 | 0.0 | 0.0 | 0.00 | 0.00 | 0.00 | 45 | 1011.5 |
| 20260504222556 | 18 | 270 | 0.0 | 0.0 | 0.00 | 0.00 | 0.00 | 45 | 1011.5 |
| 20260504220010 | 19 | 270 | 1.6 | 0.0 | 0.00 | 0.00 | 0.00 | 41 | 1011.5 |
| 20260504213130 | 19 | 270 | 1.6 | 0.0 | 0.00 | 0.00 | 0.00 | 41 | 1011.5 |
| 20260504210246 | 19 | 210 | 1.6 | 0.0 | 0.00 | 0.00 | 0.00 | 40 | 1011.1 |
| 20260504203546 | 19 | 210 | 1.6 | 0.0 | 0.00 | 0.00 | 0.00 | 40 | 1011.1 |
| 20260504200901 | 19 | 210 | 0.0 | 0.0 | 0.00 | 0.00 | 0.00 | 40 | 1011.0 |
| 20260504194426 | 19 | 210 | 0.0 | 0.0 | 0.00 | 0.00 | 0.00 | 40 | 1011.0 |
| 20260504191910 | 19 | 210 | 0.0 | 0.0 | 0.00 | 0.00 | 0.00 | 40 | 1011.0 |
| 20260504185250 | 23 | 220 | 0.0 | 0.0 | 0.00 | 0.00 | 0.00 | 30 | 1010.6 |
| 20260504182410 | 23 | 220 | 0.0 | 0.0 | 0.00 | 0.00 | 0.00 | 30 | 1010.6 |
| 20260504175736 | 26 | 220 | 1.6 | 0.0 | 0.00 | 0.00 | 0.00 | 26 | 1010.3 |
| 20260504173101 | 26 | 220 | 1.6 | 0.0 | 0.00 | 0.00 | 0.00 | 26 | 1010.3 |
| 20260504170210 | 26 | 220 | 1.6 | 0.0 | 0.00 | 0.00 | 0.00 | 24 | 1010.4 |
| 20260504130106 | 26 | 200 | 1.6 | 0.0 | 0.00 | 0.00 | 0.00 | 26 | 1012.1 |
| 20260504100535 | 23 | 230 | 1.6 | 0.0 | 0.00 | 0.00 | 0.00 | 27 | 1013.4 |
| 20260504080213 | 20 | 220 | 1.6 | 0.0 | 0.00 | 0.00 | 0.00 | 30 | 1013.7 |
| 20260504043423 | 10 | 140 | 0.0 | 0.0 | 0.00 | 0.00 | 0.00 | 65 | 1014.2 |
| 20260504035353 | 9 | 120 | 0.0 | 0.0 | 0.00 | 0.00 | 0.00 | 69 | 1014.1 |
| 20260504031323 | 9 | 150 | 0.0 | 0.0 | 0.00 | 0.00 | 0.00 | 69 | 1014.2 |
| 20260504023533 | 9 | 150 | 0.0 | 0.0 | 0.00 | 0.00 | 0.00 | 69 | 1014.2 |
| 20260504015528 | 9 | 140 | 0.0 | 0.0 | 0.00 | 0.00 | 0.00 | 64 | 1014.3 |
| 20260504011428 | 11 | 120 | 0.0 | 0.0 | 0.00 | 0.00 | 0.00 | 60 | 1014.2 |
| 20260504003253 | 11 | 120 | 0.0 | 0.0 | 0.00 | 0.00 | 0.00 | 60 | 1014.2 |
| 20260503235318 | 13 | 160 | 0.0 | 0.0 | 0.00 | 0.00 | 0.00 | 52 | 1014.2 |